sat.trackr.live / text

‹ back to catalog

HULIANWANG DIGUI-54

NORAD 65111 · 2025-168F

PAYLOAD ACTIVE UNKNOWN

§ Identity

Operator
Country
PRC
Launch date
2025-08-04
Launch site
WSC
Launch vehicle
Mass (kg)
RCS (m²)

External: N2YO · Heavens-Above · Gunter

§ Orbital elements

Epoch: 2026-09-21T22:24:49.589856Z

Period
108.33 min
Inclination
50.0009°
Eccentricity
0.0009984
Mean motion
13.29331084 rev/d
Perigee alt
1,141.8 km
Apogee alt
1,156.8 km
Semi-major
7,527.4 km
B*
1.0911e-4
RAAN
338.3232°
Arg perigee
24.7293°
Mean anomaly
335.4056°
Rev number
5,556

§ Raw data

HULIANWANG DIGUI-541 65111U 25168F   26264.93390729 -.00000073  00000+0  10911-3 0  99932 65111  50.0009 338.3232 0009984  24.7293 335.4056 13.29331084 55562

JSON: /api/v1/satellites/65111 · /tle

For live sub-satellite position, see the globe view (requires WebGL).

§ Visibility from observer

Set your observer location to see the next 7 days of passes ≥ 10°. The values pass through the URL so the page stays shareable.

No JS? Fill the form by hand. The geolocation button needs JavaScript.